EW7469 Weather Reports


Display with metric or nautical units.
time (UTC)temp
F
wind
direction
speed
MPH
gust
MPH
rain 1hr
in
rain 24hr
in
rain mn
in
humidity
%
barometer
mb
20260505060444 71 50 0.0 3.0 0.00 0.00 0.00 73 1014.6
20260505055939 71 127 1.0 3.0 0.00 0.00 0.00 74 1015.1
20260505055435 71 97 1.0 3.0 0.00 0.00 0.00 74 1015.1
20260505054931 71 65 1.0 4.0 0.00 0.00 0.00 74 1015.1
20260505054431 71 109 1.0 4.0 0.00 0.00 0.00 74 1015.0
20260505053944 71 71 0.0 4.0 0.00 0.00 0.00 73 1015.0
20260505053440 71 71 0.0 6.0 0.00 0.00 0.00 74 1015.0
20260505052938 71 126 2.0 6.0 0.00 0.00 0.00 74 1015.0
20260505052436 71 114 1.0 4.0 0.00 0.00 0.00 73 1015.0
20260505051944 71 89 1.0 4.0 0.00 0.00 0.00 74 1015.0
20260505051438 71 94 1.0 4.0 0.00 0.00 0.00 74 1015.0
20260505050955 71 22 1.0 4.0 0.00 0.00 0.00 74 1015.0
20260505050452 71 63 1.0 3.0 0.00 0.00 0.00 74 1015.0
20260505041444 71 72 2.0 5.0 0.00 0.00 0.00 74 1015.3
20260505040937 72 242 1.0 5.0 0.00 0.00 0.00 74 1015.3
20260505040432 72 64 1.0 3.0 0.00 0.00 0.00 74 1015.3
20260505040005 71 113 1.0 6.0 0.00 0.00 0.00 73 1015.4
20260505035439 71 122 2.0 6.0 0.00 0.00 0.00 73 1015.4
20260505034936 72 70 0.0 5.0 0.00 0.00 0.00 73 1015.4
20260505034444 72 90 1.0 5.0 0.00 0.00 0.00 72 1015.4
20260505033941 72 71 0.0 5.0 0.00 0.00 0.00 72 1015.4
20260505033436 72 75 1.0 6.0 0.00 0.00 0.00 73 1015.4
20260505032945 72 11 2.0 6.0 0.00 0.00 0.00 73 1015.7
20260505032440 72 115 0.0 5.0 0.00 0.00 0.00 72 1015.7
20260505031935 72 93 2.0 5.0 0.00 0.00 0.00 73 1015.7
20260505031431 72 57 1.0 5.0 0.00 0.00 0.00 73 1015.6
20260505030945 72 84 0.0 3.0 0.00 0.00 0.00 72 1015.6
20260505030441 72 79 0.0 6.0 0.00 0.00 0.00 72 1015.6
20260505025934 72 121 1.0 6.0 0.00 0.00 0.00 72 1015.6
20260505025443 72 65 0.0 7.0 0.00 0.00 0.00 73 1015.6
20260505024939 72 70 1.0 7.0 0.00 0.00 0.00 74 1015.6
20260505024436 72 59 1.0 4.0 0.00 0.00 0.00 73 1015.7
20260505023932 72 155 1.0 6.0 0.00 0.00 0.00 73 1015.7
20260505023447 72 72 1.0 6.0 0.00 0.00 0.00 72 1015.7
20260505022943 72 76 2.0 5.0 0.00 0.00 0.00 72 1015.6
20260505022438 72 60 1.0 4.0 0.00 0.00 0.00 72 1015.6
20260505021939 72 32 0.0 6.0 0.00 0.00 0.00 72 1015.6
20260505021436 72 56 2.0 11.0 0.00 0.00 0.00 71 1015.4
20260505020932 73 63 0.0 11.0 0.00 0.00 0.00 71 1015.4
20260505020441 73 78 1.0 7.0 0.00 0.00 0.00 71 1015.4
20260505015939 73 66 1.0 7.0 0.00 0.00 0.00 71 1015.4
20260505015455 73 70 1.0 4.0 0.00 0.00 0.00 71 1015.4
20260505014504 73 65 2.0 6.0 0.00 0.00 0.00 70 1015.8
20260505013939 73 53 1.0 4.0 0.00 0.00 0.00 70 1015.8
20260505012932 73 61 0.0 7.0 0.00 0.00 0.00 70 1015.4
20260505012456 73 53 2.0 3.0 0.00 0.00 0.00 70 1015.4
20260505011941 73 84 1.0 7.0 0.00 0.00 0.00 70 1015.4
20260505011437 73 73 0.0 7.0 0.00 0.00 0.00 70 1015.3
20260505010945 73 67 1.0 5.0 0.00 0.00 0.00 71 1015.3
20260505010501 73 80 2.0 5.0 0.00 0.00 0.00 71 1015.3
20260505005936 73 1 1.0 4.0 0.00 0.00 0.00 71 1015.0
20260505005431 74 58 1.0 3.0 0.00 0.00 0.00 71 1015.0
20260505004945 74 56 1.0 5.0 0.00 0.00 0.00 71 1015.0
20260505004439 74 98 0.0 3.0 0.00 0.00 0.00 71 1014.9
20260505003945 74 103 0.0 5.0 0.00 0.00 0.00 71 1014.9
20260505003441 74 66 1.0 5.0 0.00 0.00 0.00 71 1014.9
20260505002956 74 60 2.0 6.0 0.00 0.00 0.00 71 1014.8
20260505002432 74 103 1.0 6.0 0.00 0.00 0.00 70 1014.8
20260505001939 74 13 2.0 6.0 0.00 0.00 0.00 70 1014.8
20260505001433 74 100 2.0 6.0 0.00 0.00 0.00 69 1014.6
20260505000949 74 39 2.0 7.0 0.00 0.00 0.00 68 1014.6
20260505000443 75 63 2.0 11.0 0.00 0.00 0.00 68 1014.6
20260504235939 75 52 3.0 11.0 0.00 0.00 0.00 67 1014.4
20260504235435 75 73 2.0 7.0 0.00 0.00 0.00 66 1014.4
20260504234949 75 44 2.0 4.0 0.00 0.00 0.00 66 1014.4
20260504234444 75 32 0.0 7.0 0.00 0.00 0.00 66 1014.4
20260504233937 75 77 2.0 7.0 0.00 0.00 0.00 65 1014.4
20260504233433 75 116 2.0 6.0 0.00 0.00 0.00 64 1014.4
20260504232941 75 83 2.0 5.0 0.00 0.00 0.00 64 1014.3
20260504232436 76 68 2.0 4.0 0.00 0.00 0.00 63 1014.3
20260504231950 76 7 3.0 4.0 0.00 0.00 0.00 62 1014.3
20260504231438 76 44 2.0 4.0 0.00 0.00 0.00 62 1014.4
20260504231005 76 91 2.0 5.0 0.00 0.00 0.00 62 1014.4
20260504230438 76 54 2.0 5.0 0.00 0.00 0.00 62 1014.4
20260504225945 76 89 1.0 3.0 0.00 0.00 0.00 61 1014.4
20260504225437 76 58 1.0 5.0 0.00 0.00 0.00 61 1014.4
20260504224944 76 45 0.0 6.0 0.00 0.00 0.00 61 1014.4
20260504224440 77 57 2.0 6.0 0.00 0.00 0.00 60 1014.4
20260504223934 77 82 2.0 6.0 0.00 0.00 0.00 60 1014.4
20260504223503 77 37 3.0 7.0 0.00 0.00 0.00 59 1014.4
20260504222940 77 48 2.0 7.0 0.00 0.00 0.00 59 1014.5
20260504222438 77 29 2.0 7.0 0.00 0.00 0.00 59 1014.5
20260504221932 77 41 3.0 7.0 0.00 0.00 0.00 59 1014.5
20260504221504 77 101 2.0 9.0 0.00 0.00 0.00 59 1014.6
20260504220939 77 77 2.0 9.0 0.00 0.00 0.00 58 1014.6
20260504220433 78 65 2.0 5.0 0.00 0.00 0.00 57 1014.6
20260504215939 78 44 1.0 4.0 0.00 0.00 0.00 57 1014.7
20260504215433 78 31 1.0 6.0 0.00 0.00 0.00 56 1014.7
20260504215002 78 37 2.0 6.0 0.00 0.00 0.00 56 1014.7
20260504214437 79 8 2.0 5.0 0.00 0.00 0.00 56 1014.6
20260504213932 79 59 3.0 9.0 0.00 0.00 0.00 55 1014.6
20260504213440 79 38 2.0 14.0 0.00 0.00 0.00 55 1014.6
20260504212937 80 75 2.0 14.0 0.00 0.00 0.00 55 1014.8
20260504212432 80 26 2.0 13.0 0.00 0.00 0.00 54 1014.8
20260504211944 80 75 2.0 6.0 0.00 0.00 0.00 54 1014.8
20260504211440 80 18 2.0 6.0 0.00 0.00 0.00 53 1014.7
20260504210935 80 59 3.0 5.0 0.00 0.00 0.00 54 1014.7
20260504210446 80 36 2.0 5.0 0.00 0.00 0.00 53 1014.7
20260504205943 80 49 3.0 5.0 0.00 0.00 0.00 53 1014.8
20260504205437 80 33 3.0 6.0 0.00 0.00 0.00 53 1014.8
20260504204947 80 18 2.0 6.0 0.00 0.00 0.00 53 1014.8
20260504204442 80 86 3.0 5.0 0.00 0.00 0.00 53 1014.9
20260504203937 80 73 2.0 8.0 0.00 0.00 0.00 55 1014.9
20260504203446 80 49 2.0 8.0 0.00 0.00 0.00 55 1014.9
20260504202942 79 58 1.0 7.0 0.00 0.00 0.00 56 1015.1
20260504202458 79 32 2.0 7.0 0.00 0.00 0.00 56 1015.1
20260504201942 79 81 2.0 9.0 0.00 0.00 0.00 56 1015.1
20260504201437 80 110 4.0 14.0 0.00 0.00 0.00 54 1015.0
20260504200959 80 72 3.0 14.0 0.00 0.00 0.00 53 1015.0
20260504200431 80 23 4.0 12.0 0.00 0.00 0.00 52 1015.0
20260504195938 80 72 2.0 9.0 0.00 0.00 0.00 54 1015.3
20260504195435 81 79 2.0 10.0 0.00 0.00 0.00 53 1015.3
20260504194933 81 75 3.0 12.0 0.00 0.00 0.00 51 1015.3
20260504194507 82 39 3.0 12.0 0.00 0.00 0.00 51 1015.3
20260504193938 81 44 3.0 6.0 0.00 0.00 0.00 52 1015.3
20260504193432 81 49 4.0 16.0 0.00 0.00 0.00 52 1015.3
20260504193007 81 40 5.0 16.0 0.00 0.00 0.00 55 1015.4
20260504192442 81 5 3.0 10.0 0.00 0.00 0.00 53 1015.4
20260504191939 80 61 4.0 10.0 0.00 0.00 0.00 55 1015.4
20260504191436 79 43 4.0 10.0 0.00 0.00 0.00 59 1015.8
20260504190942 78 71 2.0 10.0 0.00 0.00 0.00 61 1015.8
20260504190438 77 41 3.0 10.0 0.00 0.00 0.00 61 1015.8
20260504185936 76 24 3.0 6.0 0.00 0.00 0.00 61 1015.9
20260504185431 76 84 2.0 6.0 0.00 0.00 0.00 62 1015.9
20260504184946 76 34 3.0 5.0 0.00 0.00 0.00 61 1015.9
20260504184441 76 49 2.0 11.0 0.00 0.00 0.00 61 1016.2
20260504183937 77 39 2.0 11.0 0.00 0.00 0.00 60 1016.2
20260504183445 77 32 2.0 9.0 0.00 0.00 0.00 61 1016.2
20260504182942 77 63 2.0 6.0 0.00 0.00 0.00 60 1016.0
20260504182437 78 1 2.0 9.0 0.00 0.00 0.00 60 1016.0
20260504181945 78 45 3.0 9.0 0.00 0.00 0.00 60 1016.0
20260504181440 78 80 3.0 10.0 0.00 0.00 0.00 61 1016.3
20260504180936 77 354 4.0 11.0 0.00 0.00 0.00 61 1016.3
20260504180440 77 48 2.0 11.0 0.00 0.00 0.00 61 1016.3
20260504175936 78 85 2.0 6.0 0.00 0.00 0.00 61 1016.4
20260504175449 77 47 2.0 7.0 0.00 0.00 0.00 61 1016.4
20260504174943 77 5 2.0 9.0 0.00 0.00 0.00 62 1016.4
20260504174457 77 48 2.0 9.0 0.00 0.00 0.00 62 1016.4
20260504173933 77 62 3.0 9.0 0.00 0.00 0.00 60 1016.4
20260504173440 77 39 5.0 9.0 0.00 0.00 0.00 61 1016.4
20260504172934 77 36 2.0 10.0 0.00 0.00 0.00 61 1016.3
20260504172442 78 15 3.0 10.0 0.00 0.00 0.00 59 1016.3
20260504171939 79 44 4.0 9.0 0.00 0.00 0.00 58 1016.3
20260504171443 79 45 3.0 9.0 0.00 0.00 0.00 59 1016.4
20260504170936 79 65 2.0 7.0 0.00 0.00 0.00 59 1016.4
20260504170431 79 20 3.0 10.0 0.00 0.00 0.00 59 1016.4
20260504160439 78 5 3.0 12.0 0.00 0.00 0.00 60 1016.5
20260504150932 76 117 3.0 10.0 0.00 0.01 0.00 62 1016.7
20260504150445 76 45 4.0 10.0 0.00 0.01 0.00 62 1016.7
20260504140940 75 19 3.0 9.0 0.00 0.01 0.00 64 1016.1
20260504140437 75 65 4.0 9.0 0.00 0.01 0.00 64 1016.1
20260504130443 74 40 3.0 6.0 0.00 0.01 0.00 65 1015.6
20260504110432 73 39 3.0 12.0 0.00 0.01 0.00 69 1014.4
20260504100508 73 41 3.0 7.0 0.00 0.12 0.00 71 1013.9
20260504081941 74 41 2.0 6.0 0.00 0.22 0.00 70 1013.4
20260504081458 74 49 2.0 6.0 0.00 0.22 0.00 69 1013.5
20260504080936 74 23 2.0 7.0 0.00 0.22 0.00 70 1013.5
20260504080433 74 31 3.0 8.0 0.00 0.22 0.00 70 1013.5